Location: Kosice
(0.0000°N, 21.2500°E)
Time: 12:57:11
(UTC+01:00)

Daily predictions for brighter satellites

Satellite Brightness Start Highest point End
(mag) Time Altitude Azimuth Time Altitude Azimuth Time Altitude Azimuth
Meteor 1-12 Rocket 4.4 17:49:17 10° N 17:54:56 83° W 18:00:39 10° S
Cosmos 990 Rocket 4.3 17:52:42 10° S 17:57:36 45° ESE 18:02:30 10° NNE
CSL-04 Rocket 3.6 17:52:40 10° SSE 17:57:53 64° ENE 18:03:08 10° N
Cosmos 2263 Rocket 4.0 17:53:12 10° NW 17:58:20 37° WSW 18:03:28 10° S
NOSS 3-2 (C) 4.1 17:56:10 10° SW 18:01:38 51° WNW 18:07:08 10° N
ISS -3.9 18:01:10 10° NNW 18:04:24 83° NE 18:07:39 10° SE
Cosmos 1400 Rocket 3.5 18:00:54 10° SSW 18:04:48 58° W 18:08:45 10° N
SJ 16-02 3.0 18:02:07 10° SE 18:04:58 17° ESE 18:07:44 10° ENE
DELTA 2 R/B (1) 4.1 18:06:11 10° NNW 18:11:20 38° NE 18:16:27 10° ESE
H-2A R/B 2.7 18:10:40 10° SSE 18:14:30 88° E 18:18:21 10° N
YAOGAN 1 2.5 18:10:27 10° SSE 18:14:46 70° ENE 18:19:03 10° N
Cosmos 1315 Rocket 2.8 18:10:57 10° S 18:14:52 59° E 18:18:45 10° NNE
Cosmos 858 Rocket 4.4 18:11:12 10° S 18:16:23 77° ESE 18:21:33 10° NNE
CSL-04 Debris 4.3 18:11:10 10° S 18:16:38 82° WSW 18:22:01 10° NNW
Envisat 3.8 18:13:02 10° SE 18:17:20 28° ENE 18:21:36 10° NNE
Cosmos 1544 4.3 18:15:33 10° NE 18:18:19 21° E 18:21:09 10° SE
Ariane H10-3 4.2 18:07:38 10° W 18:18:22 60° SSW 18:22:06 10° ESE
FengYun 1-2 T 4.5 18:17:10 10° SSE 18:22:24 46° ENE 18:27:39 10° N
Cosmos 1842 4.4 18:19:47 10° SSE 18:23:02 24° E 18:24:45 18° ENE
CZ-4 R/B 2.4 18:19:08 10° S 18:23:12 52° WSW 18:27:17 10° NNW
SL-19 R/B 3.8 18:21:50 10° NNE 18:24:57 89° E 18:28:33 10° SSW
BLOCK DM-SL R/B 3.2 18:20:41 10° W 18:25:04 88° S 18:28:40 15° E
Cosmos 1455 Rocket 3.0 18:22:49 10° N 18:27:06 62° E 18:31:27 10° SSE
Ariane H10+ 4.0 18:15:13 10° W 18:28:58 77° S 18:33:05 17° E
Cosmos 1538 Rocket 4.2 18:24:53 10° N 18:29:59 49° ENE 18:35:02 10° SSE
ARIANE 5 DEB (SYLDA) 3.9 18:26:45 10° WNW 18:30:29 58° N 18:36:02 17° E
GPS 2-14 Rocket1 2.8 18:28:29 10° WSW 18:32:41 75° NNW 18:34:59 25° ENE
ATLAS 3B CENTAUR R/B 3.6 18:27:35 10° SW 18:33:43 62° SE 18:44:35 20° ENE
ASTEX 1 4.2 18:30:41 10° SE 18:34:54 29° E 18:37:05 21° NE
MONITOR-E 3.8 18:36:00 10° SSE 18:38:55 71° E 18:41:16 14° N
ARIANE 5 R/B 1.9 18:44:09 10° WSW 18:45:34 18° S 18:45:43 18° S
Cosmos 1802 Rocket 3.9 18:39:49 10° S 18:46:02 66° E 18:51:55 11° NNE
ARIANE 5 DEB (SYLDA) 2.6 18:44:38 10° WSW 18:48:31 46° S 18:49:05 39° SE
GPS 2-04 Rocket1 3.8 18:44:55 10° NNW 18:48:08 29° NNE 18:48:08 29° NNE
Cosmos 2100 Rocket 4.1 18:43:25 10° S 18:49:36 80° W 18:55:49 10° N
CENTAUR R/B 3.3 18:44:48 10° SW 18:49:47 39° WNW 18:55:02 10° N
Cosmos 1459 Rocket 4.0 18:44:24 10° S 18:50:48 86° W 18:57:08 10° N
Cosmos 1378 4.3 18:47:46 10° SSE 18:50:17 28° ESE 18:50:17 28° ESE
Ariane H10+ 3.4 18:24:34 10° W 18:53:15 73° NNW 18:55:43 34° ENE
Meteor 1-15 Rocket 4.5 18:48:41 10° N 18:54:35 77° W 19:00:29 10° S
Ariane Rocket 4.1 18:49:47 10° S 18:54:38 46° WSW 18:59:28 10° NNW
Cosmos 1844 3.6 18:49:56 10° NNW 18:55:41 82° ENE 19:01:29 10° SSE
SL-16 R/B 3.5 18:50:53 10° SW 18:56:04 37° WNW 19:01:14 10° N
Milstar 3 4.4 18:51:25 10° SSW 18:56:26 21° SSE 19:00:24 15° ESE
Intelsat 5-1 Rocket 3.9 18:52:49 10° NW 18:56:23 17° N 18:56:23 17° N
Okean 1-7 Rocket 3.5 18:54:42 10° S 18:59:10 65° E 19:00:26 44° NNE
ARIANE 5 R/B 3.8 18:56:46 10° WNW 19:00:34 60° N 19:02:59 34° ENE
Cosmos 372 Rocket 4.0 19:01:12 10° S 19:06:17 55° ESE 19:07:00 51° ENE
Cosmos 1125 Rocket 4.1 19:01:36 10° S 19:06:14 37° ESE 19:06:14 37° ESE
Ariane H10 3.4 19:03:23 10° WSW 19:07:03 61° S 19:14:29 22° E
Cosmos 1943 4.0 19:04:00 10° SSE 19:08:25 32° ESE 19:08:25 32° ESE
Cosmos 2061 Rocket 4.1 19:02:47 10° S 19:09:01 77° W 19:14:37 13° N
MOS 1 4.4 19:07:15 10° S 19:12:57 79° WSW 19:18:38 10° NNW
Atlas Centaur 2 2.6 19:07:23 10° SW 19:15:13 74° SSE 19:17:05 50° E
Cosmos 2016 Rocket 4.1 19:09:33 10° S 19:15:56 78° W 19:20:32 20° N
CZ-2D R/B 3.5 19:14:42 10° S 19:18:04 64° SSW 19:18:04 64° SSW
Palapa B4 Rocket 3.2 19:15:36 10° WNW 19:18:32 53° W 19:18:32 53° W
Cosmos 1461 3.6 19:15:06 10° S 19:18:53 49° SSE 19:18:53 49° SSE
YAOGAN 6 3.4 19:19:35 10° S 19:22:44 50° SW 19:22:44 50° SW
Cosmos 1864 Rocket 4.4 19:16:57 10° S 19:23:17 88° E 19:25:43 41° N
SL-24 R/B - RUBIN 2 3.8 19:22:52 10° SSW 19:27:42 76° S 19:27:42 76° S
Cosmos 1892 Rocket 4.2 19:30:39 10° SSW 19:34:33 52° WSW 19:34:33 52° WSW
EPKM 4.1 19:31:55 10° WNW 19:40:57 45° SW 19:40:58 45° SW
SJ 16-02 3.7 19:40:08 10° SW 19:43:16 19° WNW 19:44:47 16° NW
SPOT 3 Rocket 4.3 19:38:49 10° S 19:43:52 51° WSW 19:45:47 34° NW
Thor Agena Rocket 4.3 19:47:51 46° S 19:47:51 46° S 19:51:30 10° S
ATLAS CENTAUR R/B 4.0 19:53:19 64° ENE 19:53:19 64° ENE 20:11:10 10° SE
Cosmos 2233 Rocket 4.3 19:53:29 10° S 19:58:58 64° SW 19:58:58 64° SW
Ariane 42P Rocket 3.9 19:59:28 10° WSW 20:34:03 - E 20:02:30 58° SW
Cosmos 2278 Rocket 4.4 20:16:10 17° S 20:16:10 17° S 20:17:25 10° S
Ariane H10 4.4 19:56:34 10° W 20:42:05 81° SW 20:42:05 81° SW
